Regional Weather Roundup
Issued by NWS Jackson, KY

Home | Current Version | Previous Version | Graphics & Text | Print | Product List | Glossary On
Versions: 1 2 3 4 5 6 7 8 9 10 11 12 13 14 15 16 17 18 19 20 21 22 23 24 25 26 27
000
ASUS43 KJKL 210110
RWRJKL

EAST KENTUCKY HOURLY WEATHER ROUNDUP
NATIONAL WEATHER SERVICE JACKSON KY
900 PM EDT SUN AUG 20 2017

NOTE: "FAIR" INDICATES FEW OR NO CLOUDS BELOW 12,000 FEET WITH
NO SIGNIFICANT WEATHER AND/OR OBSTRUCTIONS TO VISIBILITY.

* THESE REPORTS ARE NOT UNDER NWS QUALITY CONTROL AND MAY NOT
  REPORT WEATHER SUCH AS PRECIPITATION AND FOG.

KYZ079-080-083-085-087-088-110-112-115-119-120-210200
...EASTERN KENTUCKY...

CITY           SKY/WX    TMP DP  RH WIND       PRES   REMARKS
JACKSON        CLEAR     79  60  52 CALM      30.16R
LONDON         CLEAR     76  68  76 CALM      30.15R
SOMERSET*      CLEAR     73  68  83 S5        30.14R
MONTICELLO*    PTCLDY    70  68  93 CALM      30.15R
WILLIAMSBURG*  CLEAR     73  72  94 CALM      30.15R
MIDDLESBORO*   PTCLDY    75  71  86 W3        30.16R
HARLAN APT*    CLEAR     72  70  94 CALM      30.18R
PIKE CO APT*     N/A     80  68  66 CALM      30.16S
BIG SANDY APT* CLOUDY    77  72  84 CALM      30.16R
MOREHEAD APT*  CLEAR     79  68  69 S3        30.15R
$$

KYZ035-036-041-042-044-050-067-078-099-210200
...CENTRAL KENTUCKY...

CITY           SKY/WX    TMP DP  RH WIND       PRES   REMARKS
MT STERLING*   CLOUDY    77  72  83 CALM      30.14S
FLEMING/MASON* PTCLDY    79  68  69 S7        30.13R
DANVILLE*      CLEAR     77  70  78 CALM      30.14R
LEXINGTON      CLEAR     81  67  62 S6        30.12R
FRANKFORT      CLOUDY    79  68  69 CALM      30.09R
LOUISVILLE     MOCLDY    87  67  51 S6        30.06S HX  90
LEBANON*         N/A     81  68  65 CALM      30.11R
GLASGOW*       CLOUDY    76  69  76 CALM      30.09S
BOWLING GREEN  MOCLDY    82  72  71 CALM      30.07R
$$

KYZ091>093-OHZ055-061-077-WVZ005-015-034-035-042-210200
...SOUTHERN OHIO/WEST VIRGINIA...

CITY           SKY/WX    TMP DP  RH WIND       PRES   REMARKS
COVINGTON      CLOUDY    78  70  76 S3        30.09S
COLUMBUS       PTCLDY    83  70  64 S6        30.09R
DAYTON         CLOUDY    78  63  59 SW5       30.10S
WILMINGTON     PTCLDY    77  70  79 CALM      30.10S
HUNTINGTON     CLEAR     80  67  64 CALM      30.12R
CHARLESTON     PTCLDY    76  69  79 CALM      30.14R
PINEVILLE*     CLEAR     71  68  90 MISG      30.24R
BECKLEY        CLEAR     73  64  73 S3        30.23R
BLUEFIELD      PTCLDY    75  62  64 SW5       30.27R
LOGAN CO APT*    N/A     77  66  69 CALM      30.18R
$$

VAZ002-007-008-TNZ017-027-036-066-071-210200
...SOUTHWEST VIRGINIA/EAST TENNESSEE...

CITY           SKY/WX    TMP DP  RH WIND       PRES   REMARKS
WISE*          CLEAR     73  63  68 CALM      30.26R
JONESVILLE*      N/A     75  72  88 CALM      30.18R
ABINGDON*      PTCLDY    76  70  81 CALM      30.21R
BRISTOL        PTCLDY    75  70  84 CALM      30.16R
MORRISTOWN*    CLEAR     81  64  57 CALM      30.14R
SEVIERVILLE*   PTCLDY    81  63  54 CALM      30.12R
KNOXVILLE      CLEAR     84  63  49 CALM      30.12R
LAFOLLETTE*      N/A     75  72  88 CALM      30.17R
OAK RIDGE      CLEAR     80  71  74 CALM      30.14R
CROSSVILLE     CLOUDY    78  69  73 CALM      30.18R
NASHVILLE      CLOUDY    85  68  56 SE8       30.07R
$$

...KEY TO REMARKS...
VSB - VISIBILITY IN MILES
WCI - WIND CHILL INDEX
HX  - HEAT INDEX

$$




USA.gov is the U.S. government's official web portal to all federal, state and local government web resources and services.